Regional Weather Roundup
Issued by NWS

Home | Current Version | Previous Version | Graphics & Text | Print | Product List | Glossary On
Versions: 1 2 3 4 5 6 7 8 9 10 11 12 13 14 15 16 17 18 19 20 21 22 23 24 25 26 27
000
ASUS45 KSLC 212310
RWRUT

UTAH REGIONAL WEATHER ROUNDUP
NATIONAL WEATHER SERVICE SALT LAKE CITY UT
400 PM MST TUE NOV 21 2017

UTZ001>011-023>025-220000-

NORTHERN UTAH

CITY           SKY/WX    TMP DP  RH WIND       PRES   REMARKS
BRIGHAM CITY   CLEAR     56  34  44 CALM      30.34S
DUGWAY         PTSUNNY   63  36  36 NW1       30.32
HILL AFB       CLEAR     55  39  54 W3        30.34R
LOGAN          PTCLDY    60  40  47 CALM      30.32S
OGDEN          CLEAR     56  38  50 CALM      30.33R
SALT LAKE CITY MOCLDY    62  41  46 NW7       30.33R
TOOELE VALLEY    N/A     55  41  58 CALM      30.34S
WENDOVER       SUNNY     54  36  50 E5        30.33R
HEBER CITY       N/A     54  36  50 SW5       30.33S
WEST JORDAN    CLEAR     58  44  59 NW8       30.35R

$$

UTZ011>015-024>027-220000-

CENTRAL/NORTHEAST UTAH

CITY           SKY/WX    TMP DP  RH WIND       PRES   REMARKS
PROVO AIRPORT  PTCLDY    58  37  45 CALM      30.35R
MOAB/CANYONLAN CLEAR     54  14  20 CALM      30.31R
DELTA          SUNNY     59  28  31 W3        30.35S
PRICE          CLEAR     57  24  28 CALM      30.33R
RICHFIELD      SUNNY     59  34  38 CALM      30.37S
ROOSEVELT      CLEAR     55  27  33 S3        30.32R
VERNAL         CLEAR     57  28  33 CALM      30.30S

$$

UTZ013>016-019>022-027-220000-

SOUTHERN UTAH

CITY           SKY/WX    TMP DP  RH WIND       PRES   REMARKS
BRYCE CANYON   SUNNY     55  33  43 W8        30.41R
CEDAR CITY     MOSUNNY   64  33  31 NW7       30.33R
MILFORD        SUNNY     64  39  39 N9        30.33S
ST GEORGE      CLEAR     63  11  13 CALM      30.24S
HANKSVILLE     SUNNY     55  14  19 N3        30.33S
KANAB          SUNNY     68  28  22 CALM      30.31S
BLANDING         N/A     61  30  31 NW13      30.37R

$$

REGIONAL REPORTS     COLORADO/ARIZONA

CITY           SKY/WX    TMP DP  RH WIND       PRES   REMARKS
CRAIG, CO      CLOUDY    50  33  52 W6        30.34S
GRAND JUNCTION CLOUDY    55  22  27 NW6       30.31F
RIFLE, CO      CLOUDY    49  32  52 CALM      30.35F
MONTROSE, CO   CLOUDY    54  24  31 CALM      30.35R
CORTEZ, CO     CLEAR     61  29  29 N12G20    30.29R
COLORADO CITY    N/A     68  27  21 NW9       30.31R
PAGE, AZ       SUNNY     59  16  18 VRB3      30.30R
GRAND CANYON   MOSUNNY   59  28  30 NE16G22   30.37R
KINGMAN, AZ    MOSUNNY   71  19  14 NE6       30.21F
FLAGSTAFF, AZ  SUNNY     58  25  28 NE14G23   30.36R

$$

REGIONAL REPORTS    NEVADA/IDAHO/WYOMING

CITY           SKY/WX    TMP DP  RH WIND       PRES   REMARKS
LAS VEGAS, NV  PTSUNNY   72  17  12 CALM      30.19S
ELY, NY        SUNNY     62  37  39 NE6       30.36S
ELKO, NV       CLOUDY    59  44  57 W7        30.33R
POCATELLO, ID  CLOUDY    50  44  80 N5        30.33S
BURLEY, ID     CLOUDY    54  47  77 NE6       30.29R
FORT BRIDGER,  CLOUDY    45  38  78 W8        30.41R
EVANSTON, WY   CLOUDY    45  37  73 SW6       30.38S
ROCK SPRINGS,  CLOUDY    45  35  68 W18       30.34R
KEMMERER, WY   CLOUDY    41  34  75 W14       30.38S

$$




USA.gov is the U.S. government's official web portal to all federal, state and local government web resources and services.